User: anonymous   Login
Location: Oshawa
(43.9000°N, 78.8670°W)
Time: 23:01:11
(UTC-05:00)
Language:

Iridium 98 - Orbit

View from above orbital plane
View from above orbital plane
View from above satellite
View from above satellite

Ground track
Ground track

The orbit data is extracted from the following two-line orbital elements,

1 27451U 02031B   16038.57461221  .00000057  00000-0  13461-4 0  9992
2 27451  86.3935 229.3528 0002095  85.7733 331.6485 14.34217534720266
Epoch (UTC): 07 February 2016 13:47:26
Eccentricity: 0.0002095
inclination: 86.3935°
perigee height: 776 km
apogee height: 779 km
right ascension of ascending node: 229.3528°
argument of perigee: 85.7733°
revolutions per day: 14.34217534
mean anomaly at epoch: 331.6485°
orbit number at epoch: 72026

The dashed part of the orbit path shows where the satellite is in the earth's shadow,  

DLR